Date String (YYYY-MM-DD hh:mm:ss) UTC,Instrument flags,Ambient pressure (hPa),Sample flow (lpm),Bypass flow (lpm),Sample temperature (°C),Ambient temperature (°C),ASC tube jacket temperature (°C),LED temperature (°C),Box temperature (°C),Sample RH (%),Span deviation,Mass concentration (μg/m³),Mass concentration (μg/m³),Mass concentration (μg/m³)
DateTimeUTC,F1_M11,P_M11,Q1_M11,Q2_M11,T1_M11,T2_M11,T3_M11,T4_M11,T5_M11,U1_M11,ZSPAN_M11,X0_M11,X2_M11,X1_M11
2022-04-02 05:00:00,,0823.9,4.99,0.00,27.0,26.0,00.0,36.0,28.8,11.3,0000.0,0011.47,0004.49,0003.56
2022-04-02 05:01:00,,0823.9,5.01,0.00,27.0,26.0,00.0,36.0,28.8,11.3,0000.0,0011.38,0004.44,0003.54
2022-04-02 05:02:00,,0823.9,5.01,0.00,27.0,26.0,00.0,35.9,28.8,11.3,0000.0,0011.50,0004.42,0003.53
2022-04-02 05:03:00,,0823.9,4.99,0.00,27.0,26.0,00.0,35.9,28.8,11.2,0000.0,0011.96,0004.43,0003.53
2022-04-02 05:04:00,,0823.9,5.00,0.00,27.0,26.0,00.0,35.9,28.8,11.2,0000.0,0012.06,0004.39,0003.52
2022-04-02 05:05:00,,0823.8,4.99,0.00,26.9,26.0,00.0,35.9,28.7,11.2,0000.0,0011.86,0004.37,0003.53
2022-04-02 05:06:00,,0823.8,5.00,0.00,26.9,26.0,00.0,35.9,28.7,11.2,0000.0,0011.25,0004.37,0003.52
2022-04-02 05:07:00,,0823.8,5.00,0.00,26.9,26.0,00.0,35.9,28.7,11.2,0000.0,0010.90,0004.38,0003.52
2022-04-02 05:08:00,,0823.8,5.02,0.00,26.9,26.0,00.0,35.9,28.7,11.2,0000.0,0011.18,0004.41,0003.52
2022-04-02 05:09:00,,0823.8,4.99,0.00,26.9,26.0,00.0,35.9,28.7,11.2,0000.0,0011.91,0004.46,0003.53
2022-04-02 05:10:00,,0823.8,4.99,0.00,26.9,25.9,00.0,35.9,28.7,11.3,0000.0,0012.58,0004.47,0003.52
2022-04-02 05:11:00,,0823.8,5.00,0.00,26.9,26.0,00.0,35.9,28.7,11.4,0000.0,0012.31,0004.43,0003.52
2022-04-02 05:12:00,,0823.9,5.02,0.00,26.9,26.0,00.0,35.9,28.7,11.3,0000.0,0012.81,0004.49,0003.53
2022-04-02 05:13:00,,0823.9,5.00,0.00,26.9,25.9,00.0,35.9,28.7,11.3,0000.0,0013.22,0004.48,0003.55
2022-04-02 05:14:00,,0823.9,4.99,0.00,26.9,25.9,00.0,35.9,28.7,11.4,0000.0,0012.87,0004.43,0003.55
2022-04-02 05:15:00,,0823.8,5.01,0.00,26.9,25.9,00.0,35.9,28.7,11.4,0000.0,0012.49,0004.41,0003.54
2022-04-02 05:16:00,,0823.9,5.00,0.00,26.9,25.9,00.0,35.9,28.7,11.5,0000.0,0012.92,0004.38,0003.52
2022-04-02 05:17:00,,0823.9,5.00,0.00,26.9,25.9,00.0,35.9,28.7,11.5,0000.0,0012.92,0004.36,0003.51
2022-04-02 05:18:00,,0823.8,5.00,0.00,26.9,25.9,00.0,35.9,28.7,11.5,0000.0,0011.98,0004.31,0003.49
2022-04-02 05:19:00,,0823.8,5.00,0.00,26.9,25.9,00.0,35.8,28.7,11.5,0000.0,0011.52,0004.28,0003.47
2022-04-02 05:20:00,,0823.8,5.00,0.00,26.9,25.9,00.0,35.8,28.7,11.4,0000.0,0011.31,0004.23,0003.46
2022-04-02 05:21:00,,0823.8,5.02,0.00,26.9,25.9,00.0,35.8,28.7,11.4,0000.0,0010.50,0004.21,0003.46
2022-04-02 05:22:00,,0823.8,4.99,0.00,26.9,25.9,00.0,35.8,28.7,11.5,0000.0,0010.58,0004.25,0003.45
2022-04-02 05:23:00,,0823.7,4.99,0.00,26.9,25.9,00.0,35.8,28.7,11.5,0000.0,0010.41,0004.22,0003.44
2022-04-02 05:24:00,,0823.7,4.99,0.00,26.9,25.9,00.0,35.8,28.7,11.4,0000.0,0010.03,0004.19,0003.42
2022-04-02 05:25:00,,0823.7,5.00,0.00,26.9,25.9,00.0,35.8,28.7,11.4,0000.0,0010.00,0004.20,0003.40
2022-04-02 05:26:00,,0823.6,5.00,0.00,26.9,25.9,00.0,35.8,28.7,11.4,0000.0,0010.45,0004.23,0003.39
2022-04-02 05:27:00,,0823.7,5.00,0.00,26.9,25.9,00.0,35.8,28.7,11.4,0000.0,0010.30,0004.26,0003.39
2022-04-02 05:28:00,,0823.6,5.00,0.00,26.9,25.9,00.0,35.8,28.7,11.4,0000.0,0010.12,0004.30,0003.39
2022-04-02 05:29:00,,0823.7,4.99,0.00,26.9,25.9,00.0,35.8,28.7,11.4,0000.0,0010.45,0004.32,0003.39
2022-04-02 05:30:00,,0823.6,5.00,0.00,26.9,25.9,00.0,35.8,28.7,11.4,0000.0,0010.78,0004.32,0003.40
2022-04-02 05:31:00,,0823.6,5.00,0.00,26.9,25.9,00.0,35.8,28.7,11.4,0000.0,0010.57,0004.32,0003.40
2022-04-02 05:32:00,,0823.6,5.02,0.00,26.9,25.9,00.0,35.8,28.6,11.4,0000.0,0010.69,0004.35,0003.41
2022-04-02 05:33:00,,0823.7,5.00,0.00,26.9,25.9,00.0,35.8,28.7,11.4,0000.0,0010.49,0004.29,0003.41
2022-04-02 05:34:00,,0823.7,4.99,0.00,26.8,25.9,00.0,35.8,28.7,11.4,0000.0,0010.20,0004.23,0003.42
2022-04-02 05:35:00,,0823.7,5.01,0.00,26.9,25.9,00.0,35.8,28.6,11.4,0000.0,0009.99,0004.18,0003.41
2022-04-02 05:36:00,,0823.7,5.01,0.00,26.9,25.9,00.0,35.8,28.6,11.4,0000.0,0009.96,0004.20,0003.40
2022-04-02 05:37:00,,0823.6,5.00,0.00,26.8,25.9,00.0,35.8,28.6,11.4,0000.0,0010.26,0004.19,0003.40
2022-04-02 05:38:00,,0823.6,4.99,0.00,26.8,25.9,00.0,35.8,28.6,11.4,0000.0,0010.00,0004.16,0003.41
2022-04-02 05:39:00,,0823.7,5.00,0.00,26.8,25.9,00.0,35.8,28.6,11.4,0000.0,0009.94,0004.11,0003.41
2022-04-02 05:40:00,,0823.6,5.01,0.00,26.8,25.9,00.0,35.8,28.6,11.4,0000.0,0009.58,0004.07,0003.42
2022-04-02 05:41:00,,0823.6,5.00,0.00,26.8,25.9,00.0,35.8,28.6,11.4,0000.0,0009.51,0004.05,0003.42
2022-04-02 05:42:00,,0823.6,4.99,0.00,26.8,25.8,00.0,35.8,28.6,11.4,0000.0,0009.75,0004.08,0003.42
2022-04-02 05:43:00,,0823.6,4.99,0.00,26.8,25.8,00.0,35.8,28.6,11.4,0000.0,0009.91,0004.10,0003.42
2022-04-02 05:44:00,,0823.7,5.00,0.00,26.8,25.8,00.0,35.8,28.6,11.4,0000.0,0010.98,0004.17,0003.42
2022-04-02 05:45:00,,0823.7,5.00,0.00,26.8,25.8,00.0,35.8,28.6,11.4,0000.0,0011.80,0004.23,0003.42
2022-04-02 05:46:00,,0823.6,5.02,0.00,26.8,25.8,00.0,35.8,28.5,11.5,0000.0,0012.82,0004.28,0003.43
2022-04-02 05:47:00,,0823.6,4.99,0.00,26.8,25.8,00.0,35.8,28.5,11.4,0000.0,0012.69,0004.29,0003.44
2022-04-02 05:48:00,,0823.7,5.01,0.00,26.8,25.8,00.0,35.8,28.5,11.3,0000.0,0012.12,0004.29,0003.47
2022-04-02 05:49:00,,0823.7,5.00,0.00,26.8,25.7,00.0,35.8,28.5,11.4,0000.0,0012.27,0004.31,0003.48
2022-04-02 05:50:00,,0823.6,4.99,0.00,26.7,25.7,00.0,35.7,28.5,11.5,0000.0,0012.54,0004.31,0003.48
2022-04-02 05:51:00,,0823.6,4.99,0.00,26.7,25.7,00.0,35.7,28.5,11.5,0000.0,0013.59,0004.35,0003.48
2022-04-02 05:52:00,,0823.6,5.01,0.00,26.7,25.7,00.0,35.7,28.5,11.5,0000.0,0014.86,0004.41,0003.48
2022-04-02 05:53:00,,0823.6,4.99,0.00,26.7,25.7,00.0,35.7,28.5,11.5,0000.0,0014.60,0004.42,0003.48
2022-04-02 05:54:00,,0823.6,4.99,0.00,26.7,25.7,00.0,35.7,28.5,11.5,0000.0,0014.50,0004.44,0003.49
2022-04-02 05:55:00,,0823.5,5.01,0.00,26.7,25.7,00.0,35.7,28.5,11.5,0000.0,0013.69,0004.41,0003.49
2022-04-02 05:56:00,,0823.5,5.01,0.00,26.7,25.7,00.0,35.7,28.5,11.4,0000.0,0013.03,0004.40,0003.50
2022-04-02 05:57:00,,0823.5,5.00,0.00,26.7,25.7,00.0,35.7,28.4,11.5,0000.0,0012.45,0004.42,0003.53
2022-04-02 05:58:00,,0823.6,5.00,0.00,26.7,25.7,00.0,35.7,28.4,11.5,0000.0,0012.38,0004.42,0003.53
2022-04-02 05:59:00,,0823.6,4.99,0.00,26.7,25.7,00.0,35.7,28.4,11.5,0000.0,0012.61,0004.38,0003.50
